Richmond (NSW), Australia

1:24 PM AEDT on October 18, 2017 (GMT +1100)
Richmond (Military)

Weather History for YSRI - January, 2014

Change the Weather History Date:

Sunday, January 12, 2014

  Actual Average Record
Temperature  
Mean Temperature 75 °F -  
Max Temperature 86 °F 84 °F - ()
Min Temperature 64 °F 64 °F - ()
Cooling Degree Days 10    
Growing Degree Days 25 (Base 50)    
Moisture  
Dew Point 61 °F    
Average Humidity 67    
Maximum Humidity 94    
Minimum Humidity 37    
Precipitation  
Precipitation 0.00 in 0.13 in - ()
Sea Level Pressure  
Sea Level Pressure 30.02 in    
Wind  
Wind Speed 5 mph ()    
Max Wind Speed 17 mph    
Max Gust Speed -    
Visibility 6.2 miles    
Events      
T = Trace of Precipitation, MM = Missing Value Source: Averaged Metar Reports

Daily Weather History Graph

Daily Weather History Graph

Search for Another Location

Airport or City:

Trip Planner

Search our weather history database for the weather conditions in past years. The results will help you decide how hot, cold, wet, or windy it might be!

Date:

Astronomy

Jan. 12, 2014 Rise Set
Actual Time 5:59 AM AEDT 8:10 PM AEDT
Civil Twilight 5:30 AM AEDT 8:39 PM AEDT
Nautical Twilight 4:55 AM AEDT 9:13 PM AEDT
Astronomical Twilight 4:18 AM AEDT 9:51 PM AEDT
Moon 4:54 PM AEDT (1/12) 2:41 AM AEDT (1/12)
Length of Visible Light 15h 08m
Length of Day
14h 11m
Waxing Gibbous, 85% of the Moon is Illuminated
Jan 12
Waxing Gibbous
Jan 16
Full
Jan 24
Last Quarter
Jan 31
New
Feb 7
First Quarter

Hourly Weather History & Observations

Time (AEDT) Temp. Heat Index Dew Point Humidity Pressure Visibility Wind Dir Wind Speed Gust Speed Precip Events Conditions
12:00 AM 73.4 °F - 59.0 °F 61% 30.01 in 6.2 mi Calm Calm - N/A   Unknown
12:30 AM 71.6 °F - 60.8 °F 69% 29.98 in 6.2 mi Calm Calm - N/A   Scattered Clouds
1:00 AM 69.8 °F - 60.8 °F 73% 29.98 in 6.2 mi Calm Calm - N/A   Scattered Clouds
1:30 AM 69.8 °F - 60.8 °F 73% 29.98 in 6.2 mi SSW 2.3 mph - N/A   Scattered Clouds
2:00 AM 69.8 °F - 60.8 °F 73% 29.98 in 6.2 mi South 3.5 mph - N/A   Unknown
2:30 AM 69.8 °F - 60.8 °F 73% 29.98 in 6.2 mi South 3.5 mph - N/A   Scattered Clouds
3:00 AM 68.0 °F - 59.0 °F 73% 29.98 in 6.2 mi Calm Calm - N/A   Unknown
3:30 AM 66.2 °F - 60.8 °F 83% 29.98 in 6.2 mi SW 1.2 mph - N/A   Unknown
4:00 AM 66.2 °F - 62.6 °F 88% 29.98 in 6.2 mi SW 4.6 mph - N/A   Unknown
4:30 AM 66.2 °F - 62.6 °F 88% 29.98 in 6.2 mi SW 4.6 mph - N/A   Unknown
5:00 AM 64.4 °F - 62.6 °F 94% 29.98 in 6.2 mi SW 4.6 mph - N/A   Unknown
5:30 AM 66.2 °F - 62.6 °F 88% 30.01 in 6.2 mi SW 4.6 mph - N/A   Unknown
6:00 AM 64.4 °F - 62.6 °F 94% 30.01 in 6.2 mi SW 4.6 mph - N/A   Unknown
6:30 AM 66.2 °F - 62.6 °F 88% 30.04 in 6.2 mi SW 5.8 mph - N/A   Unknown
7:00 AM 68.0 °F - 64.4 °F 88% 30.04 in 6.2 mi SW 6.9 mph - N/A   Unknown
7:30 AM 71.6 °F - 66.2 °F 83% 30.04 in 6.2 mi SW 6.9 mph - N/A   Unknown
8:00 AM 73.4 °F - 64.4 °F 73% 30.04 in 6.2 mi SSW 6.9 mph - N/A   Unknown
8:30 AM 73.4 °F - 66.2 °F 78% 30.04 in 6.2 mi SSW 5.8 mph - N/A   Mostly Cloudy
9:00 AM 75.2 °F - 64.4 °F 69% 30.04 in 6.2 mi South 5.8 mph - N/A   Scattered Clouds
9:30 AM 75.2 °F - 64.4 °F 69% 30.04 in 6.2 mi SSE 3.5 mph - N/A   Scattered Clouds
10:00 AM 77.0 °F - 62.6 °F 61% 30.04 in 6.2 mi ESE 6.9 mph - N/A   Scattered Clouds
10:30 AM 78.8 °F - 62.6 °F 57% 30.04 in 6.2 mi SSE 4.6 mph - N/A   Unknown
11:00 AM 78.8 °F - 60.8 °F 54% 30.04 in 6.2 mi ESE 3.5 mph - N/A   Unknown
11:30 AM 80.6 °F 81.5 °F 60.8 °F 51% 30.04 in 6.2 mi SE 3.5 mph - N/A   Unknown
12:00 PM 80.6 °F 81.1 °F 59.0 °F 48% 30.01 in 6.2 mi ESE 3.5 mph - N/A   Unknown
12:30 PM 84.2 °F 84.4 °F 60.8 °F 45% 30.01 in 6.2 mi NE 6.9 mph - N/A   Unknown
1:00 PM 82.4 °F 81.4 °F 53.6 °F 37% 30.01 in 6.2 mi SE 8.1 mph - N/A   Unknown
1:30 PM 84.2 °F 83.5 °F 57.2 °F 40% 29.98 in 6.2 mi SSE 4.6 mph - N/A   Unknown
2:00 PM 84.2 °F 83.8 °F 59.0 °F 42% 29.98 in 6.2 mi ESE 12.7 mph - N/A   Unknown
2:30 PM 86.0 °F 86.1 °F 60.8 °F 43% 29.98 in 6.2 mi ESE 16.1 mph - N/A   Unknown
3:00 PM 86.0 °F 86.1 °F 60.8 °F 43% 29.98 in 6.2 mi ESE 13.8 mph - N/A   Scattered Clouds
3:30 PM 82.4 °F 82.9 °F 60.8 °F 48% 29.98 in 6.2 mi SE 15.0 mph - N/A   Scattered Clouds
4:00 PM 82.4 °F 82.9 °F 60.8 °F 48% 29.98 in 6.2 mi SE 16.1 mph - N/A   Mostly Cloudy
4:30 PM 80.6 °F 81.5 °F 60.8 °F 51% 29.98 in 6.2 mi SE 17.3 mph - N/A   Mostly Cloudy
5:00 PM 78.8 °F - 59.0 °F 51% 29.98 in 6.2 mi ESE 16.1 mph - N/A   Overcast
5:30 PM 75.2 °F - 59.0 °F 57% 30.01 in 6.2 mi ESE 16.1 mph - N/A   Overcast
6:00 PM 73.4 °F - 57.2 °F 57% 30.01 in 6.2 mi ESE 15.0 mph - N/A   Overcast
6:30 PM 73.4 °F - 57.2 °F 57% 30.04 in 6.2 mi SE 13.8 mph - N/A   Overcast
7:00 PM 75.2 °F - 62.6 °F 65% 30.04 in 6.2 mi SSE 15.0 mph - N/A   Overcast
7:30 PM 73.4 °F - 64.4 °F 73% 30.04 in 6.2 mi SE 13.8 mph - N/A   Overcast
8:00 PM 73.4 °F - 64.4 °F 73% 30.06 in 6.2 mi SE 12.7 mph - N/A   Overcast
8:30 PM 71.6 °F - 62.6 °F 73% 30.09 in 6.2 mi SE 13.8 mph - N/A   Overcast
9:00 PM 71.6 °F - 62.6 °F 73% 30.09 in 6.2 mi SE 13.8 mph - N/A   Overcast
9:30 PM 71.6 °F - 62.6 °F 73% 30.12 in 6.2 mi SE 10.4 mph - N/A   Overcast
10:00 PM 69.8 °F - 62.6 °F 78% 30.12 in 6.2 mi SSE 11.5 mph - N/A   Overcast
10:30 PM 69.8 °F - 60.8 °F 73% 30.12 in 6.2 mi South 9.2 mph - N/A   Overcast
11:00 PM 69.8 °F - 60.8 °F 73% 30.15 in 6.2 mi South 9.2 mph - N/A   Overcast
11:30 PM 68.0 °F - 60.8 °F 78% 30.15 in 6.2 mi South 6.9 mph - N/A   Mostly Cloudy